Location: Bennemühlen
(52.5740°N, 9.7135°E)
Time: 17:44:24
(UTC+00:00)

Lacrosse 4 Rocket - Pass Details

Date: 19 May 2025
Orbit: 513 x 576 km, 68.0° (Epoch: 17 June)

Event Time Altitude Azimuth Distance (km) Brightness Sun altitude
Rises 20:17:12 0° 247° (WSW) 2,643 5.1 -7.6°
Reaches altitude 10° 20:19:34 10° 258° (WSW) 1,766 4.3 -7.8°
Maximum altitude 20:23:03 29° 320° (NW) 990 3.6 -8.2°
Drops below altitude 10° 20:26:36 10° 23° (NNE) 1,805 4.3 -8.5°
Sets 20:29:03 0° 34° (NE) 2,713 5.1 -8.8°
